| time (UTC) | temp C | wind direction | speed KPH | gust KPH | rain 1hr cm | rain 24hr cm | rain mn cm | humidity % | barometer mb |
| 20260502161517 | 7 | 180 | 0.0 | 4.8 | 0.00 | 0.00 | 0.00 | 45 | 1024.6 |
| 20260502151514 | 2 | 283 | 0.0 | 1.6 | 0.00 | 0.00 | 0.00 | 57 | 1025.2 |
| 20260502123034 | -3 | 23 | 0.0 | 0.0 | 0.00 | 0.00 | 0.00 | 75 | 1025.1 |
| 20260502121524 | -2 | 23 | 0.0 | 0.0 | 0.00 | 0.00 | 0.00 | 74 | 1025.0 |
| 20260502114504 | -2 | 62 | 0.0 | 1.6 | 0.00 | 0.00 | 0.00 | 73 | 1025.0 |
| 20260502113004 | -2 | 62 | 0.0 | 1.6 | 0.00 | 0.00 | 0.00 | 72 | 1025.0 |
| 20260502111515 | -2 | 62 | 0.0 | 1.6 | 0.00 | 0.00 | 0.00 | 72 | 1024.9 |
| 20260502110009 | -2 | 351 | 0.0 | 1.6 | 0.00 | 0.00 | 0.00 | 71 | 1025.0 |
| 20260502104504 | -1 | 351 | 0.0 | 1.6 | 0.00 | 0.00 | 0.00 | 69 | 1025.0 |
| 20260502103005 | -1 | 359 | 0.0 | 1.6 | 0.00 | 0.00 | 0.00 | 70 | 1024.9 |
| 20260502101505 | -1 | 86 | 0.0 | 1.6 | 0.00 | 0.00 | 0.00 | 69 | 1024.8 |
| 20260502091506 | 0 | 73 | 0.0 | 0.0 | 0.00 | 0.00 | 0.00 | 65 | 1024.7 |
| 20260502071503 | 1 | 95 | 1.6 | 3.2 | 0.00 | 0.00 | 0.00 | 56 | 1024.3 |
| 20260502070010 | 1 | 294 | 0.0 | 1.6 | 0.00 | 0.00 | 0.00 | 55 | 1024.3 |
| 20260502064511 | 2 | 287 | 0.0 | 1.6 | 0.00 | 0.00 | 0.00 | 52 | 1024.1 |
| 20260502063024 | 3 | 68 | 0.0 | 1.6 | 0.00 | 0.00 | 0.00 | 49 | 1023.8 |
| 20260502061509 | 3 | 49 | 1.6 | 3.2 | 0.00 | 0.00 | 0.00 | 49 | 1023.7 |
| 20260502060008 | 3 | 45 | 0.0 | 1.6 | 0.00 | 0.00 | 0.00 | 48 | 1023.5 |
| 20260502054515 | 3 | 45 | 0.0 | 3.2 | 0.00 | 0.00 | 0.00 | 47 | 1023.4 |
| 20260502053012 | 4 | 84 | 0.0 | 0.0 | 0.00 | 0.00 | 0.00 | 46 | 1023.4 |
| 20260502051512 | 4 | 100 | 0.0 | 1.6 | 0.00 | 0.00 | 0.00 | 45 | 1023.2 |
| 20260502050014 | 5 | 302 | 0.0 | 1.6 | 0.00 | 0.00 | 0.00 | 43 | 1023.3 |
| 20260502044516 | 6 | 301 | 0.0 | 4.8 | 0.00 | 0.00 | 0.00 | 39 | 1023.2 |
| 20260502043014 | 6 | 159 | 0.0 | 4.8 | 0.00 | 0.00 | 0.00 | 37 | 1023.1 |
| 20260502041514 | 7 | 43 | 0.0 | 1.6 | 0.00 | 0.00 | 0.00 | 34 | 1023.0 |
| 20260502040012 | 8 | 348 | 0.0 | 3.2 | 0.00 | 0.00 | 0.00 | 33 | 1022.9 |
| 20260502034518 | 10 | 53 | 8.0 | 12.9 | 0.00 | 0.00 | 0.00 | 26 | 1022.8 |
| 20260502033017 | 9 | 21 | 9.7 | 12.9 | 0.00 | 0.00 | 0.00 | 29 | 1022.5 |
| 20260502031516 | 10 | 188 | 0.0 | 8.0 | 0.00 | 0.00 | 0.00 | 30 | 1022.3 |
| 20260502030018 | 11 | 92 | 0.0 | 3.2 | 0.00 | 0.00 | 0.00 | 27 | 1022.1 |
| 20260502024520 | 12 | 75 | 6.4 | 12.9 | 0.00 | 0.00 | 0.00 | 23 | 1021.6 |
| 20260502023009 | 12 | 42 | 11.3 | 12.9 | 0.00 | 0.00 | 0.00 | 24 | 1021.5 |
| 20260502021519 | 13 | 18 | 8.0 | 11.3 | 0.00 | 0.00 | 0.00 | 20 | 1021.4 |
| 20260502020018 | 15 | 6 | 1.6 | 8.0 | 0.00 | 0.00 | 0.00 | 18 | 1021.4 |
| 20260502014525 | 16 | 314 | 1.6 | 3.2 | 0.00 | 0.00 | 0.00 | 19 | 1021.3 |
| 20260502013015 | 16 | 309 | 3.2 | 9.7 | 0.00 | 0.00 | 0.00 | 19 | 1021.3 |
| 20260502011508 | 16 | 290 | 6.4 | 12.9 | 0.00 | 0.00 | 0.00 | 18 | 1021.2 |
| 20260502010013 | 16 | 305 | 6.4 | 11.3 | 0.00 | 0.00 | 0.00 | 18 | 1021.1 |
| 20260502004520 | 16 | 282 | 8.0 | 14.5 | 0.00 | 0.00 | 0.00 | 18 | 1021.2 |
| 20260502003018 | 16 | 289 | 6.4 | 12.9 | 0.00 | 0.00 | 0.00 | 19 | 1021.2 |
| 20260502001520 | 16 | 301 | 4.8 | 12.9 | 0.00 | 0.00 | 0.00 | 18 | 1021.1 |
| 20260502000010 | 17 | 112 | 3.2 | 9.7 | 0.00 | 0.00 | 0.00 | 17 | 1021.1 |
| 20260501234518 | 16 | 324 | 8.0 | 14.5 | 0.00 | 0.00 | 0.00 | 19 | 1021.3 |
| 20260501233022 | 16 | 307 | 8.0 | 12.9 | 0.00 | 0.00 | 0.00 | 19 | 1021.2 |
| 20260501231520 | 16 | 263 | 3.2 | 14.5 | 0.00 | 0.00 | 0.00 | 17 | 1021.2 |
| 20260501230022 | 16 | 321 | 8.0 | 14.5 | 0.00 | 0.00 | 0.00 | 18 | 1021.3 |
| 20260501224514 | 15 | 204 | 6.4 | 19.3 | 0.00 | 0.00 | 0.00 | 16 | 1021.4 |
| 20260501223024 | 15 | 265 | 12.9 | 19.3 | 0.00 | 0.00 | 0.00 | 16 | 1021.5 |
| 20260501221526 | 15 | 286 | 8.0 | 20.9 | 0.00 | 0.00 | 0.00 | 14 | 1021.7 |
| 20260501220023 | 15 | 275 | 11.3 | 17.7 | 0.00 | 0.00 | 0.00 | 15 | 1021.7 |
| 20260501214523 | 15 | 289 | 9.7 | 20.9 | 0.00 | 0.00 | 0.00 | 18 | 1022.2 |
| 20260501213019 | 15 | 261 | 6.4 | 12.9 | 0.00 | 0.00 | 0.00 | 17 | 1022.4 |
| 20260501211522 | 15 | 280 | 6.4 | 16.1 | 0.00 | 0.00 | 0.00 | 18 | 1022.5 |
| 20260501210022 | 14 | 255 | 4.8 | 12.9 | 0.00 | 0.00 | 0.00 | 21 | 1022.6 |
| 20260501204526 | 14 | 291 | 9.7 | 14.5 | 0.00 | 0.00 | 0.00 | 19 | 1022.7 |
| 20260501203023 | 14 | 298 | 3.2 | 16.1 | 0.00 | 0.00 | 0.00 | 20 | 1022.8 |
| 20260501201521 | 13 | 295 | 3.2 | 11.3 | 0.00 | 0.00 | 0.00 | 20 | 1022.9 |
| 20260501200025 | 13 | 285 | 3.2 | 12.9 | 0.00 | 0.00 | 0.00 | 19 | 1022.9 |
| 20260501194526 | 12 | 274 | 8.0 | 12.9 | 0.00 | 0.00 | 0.00 | 23 | 1023.1 |
| 20260501193025 | 12 | 248 | 4.8 | 16.1 | 0.00 | 0.00 | 0.00 | 21 | 1023.1 |
| 20260501191517 | 12 | 288 | 6.4 | 14.5 | 0.00 | 0.00 | 0.00 | 24 | 1023.3 |
| 20260501190026 | 12 | 272 | 6.4 | 14.5 | 0.00 | 0.00 | 0.00 | 24 | 1023.4 |
| 20260501184525 | 11 | 285 | 4.8 | 17.7 | 0.00 | 0.00 | 0.00 | 25 | 1023.4 |
| 20260501183029 | 11 | 278 | 8.0 | 17.7 | 0.00 | 0.00 | 0.00 | 29 | 1023.7 |
| 20260501181528 | 10 | 293 | 9.7 | 17.7 | 0.00 | 0.00 | 0.00 | 28 | 1024.0 |
| 20260501180023 | 10 | 314 | 6.4 | 12.9 | 0.00 | 0.00 | 0.00 | 37 | 1024.1 |
| 20260501174534 | 9 | 255 | 9.7 | 16.1 | 0.00 | 0.00 | 0.00 | 38 | 1024.2 |
| 20260501173009 | 8 | 285 | 4.8 | 8.0 | 0.00 | 0.00 | 0.00 | 46 | 1024.5 |
| 20260501171516 | 7 | 266 | 3.2 | 9.7 | 0.00 | 0.00 | 0.00 | 47 | 1024.7 |
| 20260501170019 | 7 | 287 | 0.0 | 6.4 | 0.00 | 0.00 | 0.00 | 49 | 1024.7 |
| 20260501164523 | 6 | 217 | 1.6 | 3.2 | 0.00 | 0.00 | 0.00 | 51 | 1025.0 |
| 20260501163026 | 5 | 311 | 0.0 | 4.8 | 0.00 | 0.00 | 0.00 | 52 | 1025.1 |